Location: Narrabri
(30.3170°S, 149.7830°E)
Time: 00:00:41
(UTC+11:00)

Hubble Space Telescope - Pass Details

Date: 07 October 2017
Orbit: 537 x 541 km, 28.5° (Epoch: 17 October)

Event Time Altitude Azimuth Distance (km) Brightness Sun altitude
Rises 19:51:59 0° 270° (W) 2,688 6.2 -10.6°
Reaches altitude 10° 19:54:33 10° 284° (WNW) 1,794 4.5 -11.2°
Maximum altitude 19:57:57 25° 339° (NNW) 1,119 2.5 -11.9°
Enters shadow 20:01:09 11° 33° (NNE) 1,726 2.9 -12.6°
